Weather History for KHST - October, 2013

Change the Weather History Date:

Tuesday, October 8, 2013

  Actual Average Record
Temperature  
Mean Temperature 80 °F -  
Max Temperature 87 °F 87 °F 91 °F (1934)
Min Temperature 73 °F 69 °F 62 °F (1933)
Cooling Degree Days 15    
Growing Degree Days 30 (Base 50)    
Moisture  
Dew Point 75 °F    
Average Humidity 86    
Maximum Humidity 97    
Minimum Humidity 70    
Precipitation  
Precipitation 0.29 in - - ()
Sea Level Pressure  
Sea Level Pressure 29.92 in    
Wind  
Wind Speed 6 mph (WSW)    
Max Wind Speed 14 mph    
Max Gust Speed -    
Visibility 10 miles    
Events Rain , Thunderstorm    
Averages and records for this station are not official NWS values.
T = Trace of Precipitation, MM = Missing Value Source: NWS Daily Summary

Daily Weather History Graph

Daily Weather History Graph

Search for Another Location

Airport or City:

Trip Planner

Search our weather history database for the weather conditions in past years. The results will help you decide how hot, cold, wet, or windy it might be!

Date:

Astronomy

Oct. 08, 2013 Rise Set
Actual Time 7:16 AM EDT 7:00 PM EDT
Civil Twilight 6:53 AM EDT 7:23 PM EDT
Nautical Twilight 6:27 AM EDT 7:50 PM EDT
Astronomical Twilight 6:00 AM EDT 8:16 PM EDT
Moon 10:47 AM EDT (10/8) 9:58 PM EDT (10/8)
Length of Visible Light 12h 29m
Length of Day
11h 43m
Waxing Crescent, 16% of the Moon is Illuminated
Oct 8
Waxing Crescent
Oct 11
First Quarter
Oct 18
Full
Oct 26
Last Quarter
Nov 3
New

Hourly Weather History & Observations

Time (EDT) Temp. Heat Index Dew Point Humidity Pressure Visibility Wind Dir Wind Speed Gust Speed Precip Events Conditions
12:58 AM 75.7 °F - 74.3 °F 95% 29.90 in 10.0 mi South 4.6 mph - N/A   Clear
1:58 AM 76.5 °F - 75.2 °F 96% 29.90 in 10.0 mi South 4.6 mph - N/A   Clear
2:58 AM 76.8 °F - 75.6 °F 96% 29.89 in 10.0 mi South 5.8 mph - N/A   Clear
3:58 AM 76.3 °F - 75.4 °F 97% 29.89 in 10.0 mi South 2.3 mph - N/A   Clear
4:58 AM 75.0 °F - 72.3 °F 91% 29.89 in 10.0 mi South 5.8 mph - 0.01 in   Scattered Clouds
5:58 AM 74.5 °F - 72.0 °F 92% 29.90 in 10.0 mi Calm Calm - N/A   Clear
6:58 AM 73.4 °F - 72.3 °F 96% 29.91 in 10.0 mi WSW 3.5 mph - N/A   Clear
7:58 AM 74.8 °F - 72.7 °F 93% 29.91 in 10.0 mi WNW 1.2 mph - N/A   Partly Cloudy
8:58 AM 78.8 °F - 74.8 °F 88% 29.93 in 10.0 mi South 3.5 mph - N/A   Partly Cloudy
9:58 AM 83.3 °F 92.8 °F 77.2 °F 82% 29.94 in 10.0 mi SW 6.9 mph - N/A   Partly Cloudy
10:58 AM 86.0 °F 96.0 °F 75.9 °F 72% 29.94 in 10.0 mi SW 11.5 mph - N/A   Scattered Clouds
11:49 AM 86.0 °F 96.9 °F 77.0 °F 74% 29.93 in 10.0 mi WSW 13.8 mph - N/A   Mostly Cloudy
11:50 AM 86.0 °F 96.9 °F 77.0 °F 74% 29.93 in 10.0 mi WSW 13.8 mph - N/A   Light Drizzle
11:55 AM 84.2 °F 96.1 °F 78.8 °F 84% 29.93 in 10.0 mi West 12.7 mph - N/A Rain , Thunderstorm Light Rain
11:58 AM 83.5 °F 94.0 °F 78.3 °F 84% 29.94 in 10.0 mi West 12.7 mph - 0.00 in Rain , Thunderstorm Light Rain
12:05 PM 82.4 °F 89.5 °F 75.2 °F 79% 29.93 in 10.0 mi West 9.2 mph - N/A Thunderstorm Mostly Cloudy
12:14 PM 82.4 °F 89.5 °F 75.2 °F 79% 29.94 in 10.0 mi West 12.7 mph - N/A   Light Drizzle
12:19 PM 80.6 °F 87.1 °F 77.0 °F 89% 29.93 in 10.0 mi SW 12.7 mph - N/A Rain Rain
12:34 PM 77.0 °F - 75.2 °F 94% 29.93 in 5.0 mi SW 6.9 mph - N/A Rain Rain
12:43 PM 78.8 °F - 77.0 °F 94% 29.93 in 5.0 mi West 5.8 mph - N/A   Mostly Cloudy
12:48 PM 80.6 °F 87.1 °F 77.0 °F 89% 29.93 in 10.0 mi West 10.4 mph - N/A Rain Light Rain
12:53 PM 78.8 °F - 77.0 °F 94% 29.93 in 10.0 mi West 12.7 mph - N/A Rain Rain
12:58 PM 79.0 °F - 75.9 °F 90% 29.94 in 6.0 mi West 9.2 mph - 0.28 in Rain Light Rain
1:11 PM 78.8 °F - 75.2 °F 89% 29.92 in 10.0 mi West 8.1 mph - N/A   Partly Cloudy
1:58 PM 82.9 °F 91.2 °F 76.1 °F 80% 29.92 in 10.0 mi WNW 5.8 mph - 0.00 in   Clear
2:58 PM 87.1 °F 98.3 °F 76.6 °F 71% 29.90 in 10.0 mi West 10.4 mph - N/A   Mostly Cloudy
3:58 PM 85.8 °F 94.6 °F 75.2 °F 70% 29.91 in 10.0 mi West 8.1 mph - N/A Thunderstorm Scattered Clouds
4:58 PM 84.2 °F 98.3 °F 80.6 °F 89% 29.90 in 10.0 mi Calm Calm - N/A   Scattered Clouds
5:58 PM 84.2 °F 94.1 °F 77.0 °F 79% 29.90 in 10.0 mi South 5.8 mph - N/A   Mostly Cloudy
6:58 PM 83.8 °F 90.1 °F 73.2 °F 70% 29.91 in 10.0 mi West 9.2 mph - N/A   Clear
7:58 PM 81.5 °F 86.9 °F 73.6 °F 77% 29.93 in 10.0 mi West 5.8 mph - N/A   Partly Cloudy
8:58 PM 80.6 °F 85.2 °F 73.2 °F 78% 29.95 in 10.0 mi West 6.9 mph - N/A   Partly Cloudy
9:58 PM 78.6 °F - 74.3 °F 87% 29.96 in 10.0 mi SSW 3.5 mph - N/A   Clear
10:58 PM 76.5 °F - 73.6 °F 91% 29.97 in 10.0 mi West 5.8 mph - N/A   Clear
11:58 PM 76.1 °F - 73.2 °F 91% 29.97 in 10.0 mi SW 3.5 mph - N/A   Clear